Torna al catalogo

CAPELLA-14

ACADIA

AttivoScienzaVLEO
NORAD 59444·PAYLOAD·🇺🇸 United States

Lanciato Apr 7, 2024 da Cape Canaveral Space Force Station

Loading…

Prossimi Passaggi (prossime 24 ore)

TLE

AggiornatoSource: Space-Track

Epoca: Sep 14, 2026, 01:19 UTC

1 59444U 24066C   26257.05501212  .00009477  00000-0  65936-3 0  9991
2 59444  45.6025 149.7785 0001003 227.4513 132.6287 15.05815066125890

Traccia CAPELLA-14 in tempo reale con AllMySat

Download on the App Store